{"data":{"norad_id":56461,"epoch":"2026-05-24T21:17:53.365344Z","epoch_age_seconds":84502,"freshness":"FRESH","line1":"1 56461U 23064P   26144.88742321  .00000441  00000+0  44716-4 0  9993","line2":"2 56461  69.9993 312.1743 0002964 268.7310  91.3509 14.98330610166665","mean_motion":14.9833061,"eccentricity":0.0002964,"inclination_deg":69.9993,"raan_deg":312.1743,"arg_perigee_deg":268.731,"mean_anomaly_deg":91.3509,"bstar":4.4716e-5,"rev_number":16666,"period_min":96.106959998635,"perigee_km":569.99396795662,"apogee_km":574.11404118413,"semimajor_km":6950.1910045704,"source":"CELESTRAK","updated_at":"2026-05-25T13:38:18.068795Z"}}